Location: Finnegan
(51.1333°N, 112.0833°W)
Time: 20:12:10
(UTC+00:00)

Envisat - Pass Details

Date: 09 December 2021
Orbit: 764 x 766 km, 98.2° (Epoch: 26 January)

Event Time Altitude Azimuth Distance (km) Brightness Sun altitude
Rises 10:46:29 0° 32° (NNE) 3,245 6.8 -41.5°
Reaches altitude 10° 10:51:37 10° 77° (ENE) 2,309 6.1 -40.7°
Maximum altitude 10:52:05 10° 82° (E) 2,300 6.1 -40.7°
Drops below altitude 10° 10:52:33 10° 88° (E) 2,308 6.1 -40.6°
Sets 10:57:39 0° 132° (SE) 3,224 6.6 -39.8°
